KHK131 UUDD-UKHH

Flight info

Callsign KHK131
Flight time 1h 4m
Altitude 37000
Route LINRU L4 EKTUT/K0867F360 L4 KUBOK
Aircraft B738/M-SDE2E3FGHIRWXY/LB1

Departure

Time 2026-04-26 17:04
Airport Domodedovo International Airport (UUDD)

Arrival

Time 2026-04-26 18:08
Airport Kharkiv International Airport (UKHH)
Time Latitude Longitude Altitude Speed Heading
2026-04-26 16:02 55.40951 37.89579 571 ft 0 kts 56°
2026-04-26 16:51 55.40949 37.89573 574 ft 4 kts 56°
2026-04-26 16:51 55.40934 37.89533 578 ft 4 kts 58°
2026-04-26 16:51 55.40923 37.89498 572 ft 2 kts 70°
2026-04-26 16:52 55.40920 37.89478 572 ft 2 kts 103°
2026-04-26 16:52 55.40923 37.89466 572 ft 2 kts 129°
2026-04-26 16:52 55.40934 37.89448 573 ft 2 kts 144°
2026-04-26 16:52 55.40941 37.89439 575 ft 0 kts 146°
2026-04-26 16:55 55.40935 37.89446 572 ft 3 kts 146°
2026-04-26 16:55 55.40903 37.89484 572 ft 8 kts 146°
2026-04-26 16:56 55.40821 37.89464 577 ft 6 kts 234°
2026-04-26 16:56 55.40797 37.89405 571 ft 6 kts 234°
2026-04-26 16:56 55.40774 37.89345 571 ft 6 kts 237°
2026-04-26 16:57 55.40751 37.89286 569 ft 6 kts 226°
2026-04-26 16:57 55.40714 37.89267 575 ft 6 kts 174°
2026-04-26 16:57 55.40637 37.89348 571 ft 7 kts 146°
2026-04-26 16:58 55.40592 37.89401 566 ft 8 kts 146°
2026-04-26 16:58 55.40559 37.89439 565 ft 9 kts 146°
2026-04-26 16:58 55.40432 37.89592 565 ft 10 kts 144°
2026-04-26 16:59 55.40376 37.89661 560 ft 10 kts 144°
2026-04-26 16:59 55.40259 37.89804 562 ft 10 kts 147°
2026-04-26 17:00 55.40132 37.89955 559 ft 13 kts 146°
2026-04-26 17:00 55.39955 37.90168 551 ft 18 kts 145°
2026-04-26 17:00 55.39848 37.90295 548 ft 19 kts 146°
2026-04-26 17:01 55.39739 37.90425 546 ft 18 kts 146°
2026-04-26 17:01 55.39673 37.90508 545 ft 10 kts 145°
2026-04-26 17:01 55.39614 37.90577 543 ft 10 kts 159°
2026-04-26 17:01 55.39571 37.90543 543 ft 7 kts 232°
2026-04-26 17:02 55.39561 37.90463 543 ft 7 kts 261°
2026-04-26 17:02 55.39547 37.90377 544 ft 8 kts 253°
2026-04-26 17:02 55.39557 37.90287 545 ft 8 kts 313°
2026-04-26 17:02 55.39580 37.90256 542 ft 0 kts 325°
2026-04-26 17:03 55.39746 37.90055 545 ft 65 kts 326°
2026-04-26 17:03 55.40311 37.89375 566 ft 130 kts 325°
2026-04-26 17:03 55.41194 37.88320 734 ft 169 kts 328°
2026-04-26 17:04 55.42213 37.87252 1257 ft 172 kts 328°
2026-04-26 17:04 55.43084 37.85814 2043 ft 170 kts 303°
2026-04-26 17:04 55.43809 37.84125 2764 ft 184 kts 306°
2026-04-26 17:04 55.44683 37.82264 3208 ft 204 kts 307°
2026-04-26 17:05 55.45599 37.80312 3812 ft 206 kts 300°
2026-04-26 17:05 55.46051 37.78024 3971 ft 200 kts 270°
2026-04-26 17:05 55.45776 37.75630 4055 ft 208 kts 244°
2026-04-26 17:05 55.44987 37.73363 4446 ft 223 kts 236°
2026-04-26 17:06 55.44095 37.71092 5072 ft 228 kts 236°
2026-04-26 17:06 55.42986 37.69102 5761 ft 230 kts 214°
2026-04-26 17:06 55.41451 37.68188 5926 ft 240 kts 188°
2026-04-26 17:06 55.39773 37.68696 5988 ft 257 kts 160°
2026-04-26 17:07 55.38165 37.70357 6443 ft 276 kts 149°
2026-04-26 17:07 55.36572 37.72307 6940 ft 282 kts 148°
2026-04-26 17:07 55.34969 37.74282 6985 ft 281 kts 149°
2026-04-26 17:07 55.33359 37.76254 7017 ft 284 kts 148°
2026-04-26 17:08 55.31723 37.78261 7527 ft 288 kts 148°
2026-04-26 17:08 55.30061 37.80287 7962 ft 292 kts 148°
2026-04-26 17:08 55.28386 37.82320 7987 ft 291 kts 148°
2026-04-26 17:08 55.26641 37.84013 8003 ft 284 kts 166°
2026-04-26 17:09 55.24723 37.84887 8439 ft 287 kts 170°
2026-04-26 17:09 55.23430 37.85430 9027 ft 289 kts 169°
2026-04-26 17:09 55.20810 37.86543 10160 ft 290 kts 169°
2026-04-26 17:09 55.18841 37.87396 10942 ft 294 kts 169°
2026-04-26 17:10 55.16841 37.88274 11698 ft 298 kts 169°
2026-04-26 17:10 55.14816 37.89169 12478 ft 302 kts 170°
2026-04-26 17:10 55.12767 37.90076 13240 ft 306 kts 170°
2026-04-26 17:10 55.10690 37.90936 13945 ft 306 kts 176°
2026-04-26 17:11 55.08594 37.90860 14654 ft 301 kts 192°
2026-04-26 17:11 55.06518 37.90336 15366 ft 303 kts 193°
2026-04-26 17:11 55.04412 37.89824 16069 ft 306 kts 192°
2026-04-26 17:11 55.02292 37.89338 16808 ft 308 kts 192°
2026-04-26 17:12 54.97939 37.89863 17766 ft 340 kts 168°
2026-04-26 17:12 54.95639 37.91139 18072 ft 353 kts 166°
2026-04-26 17:13 54.90966 37.93829 18343 ft 354 kts 167°
2026-04-26 17:13 54.88624 37.95133 18350 ft 353 kts 167°
2026-04-26 17:13 54.83948 37.97680 18355 ft 352 kts 167°
2026-04-26 17:14 54.81572 37.98938 18421 ft 364 kts 168°
2026-04-26 17:14 54.76495 38.01592 18660 ft 397 kts 167°
2026-04-26 17:14 54.73801 38.03007 18793 ft 411 kts 167°
2026-04-26 17:15 54.68256 38.05926 19634 ft 419 kts 167°
2026-04-26 17:15 54.65463 38.07407 20140 ft 421 kts 167°
2026-04-26 17:15 54.62655 38.08908 20643 ft 423 kts 167°
2026-04-26 17:16 54.59833 38.10420 21103 ft 426 kts 167°
2026-04-26 17:16 54.56995 38.11936 21534 ft 429 kts 167°
2026-04-26 17:16 54.54134 38.13459 21962 ft 431 kts 167°
2026-04-26 17:16 54.51261 38.14985 22427 ft 433 kts 168°
2026-04-26 17:17 54.48376 38.16527 22850 ft 436 kts 168°
2026-04-26 17:17 54.45476 38.18081 23204 ft 438 kts 168°
2026-04-26 17:17 54.42558 38.19647 23550 ft 440 kts 168°
2026-04-26 17:17 54.39629 38.21215 23924 ft 441 kts 168°
2026-04-26 17:18 54.36693 38.22783 24260 ft 443 kts 168°
2026-04-26 17:18 54.33741 38.24334 24571 ft 445 kts 169°
2026-04-26 17:18 54.30755 38.25724 24881 ft 446 kts 171°
2026-04-26 17:18 54.28753 38.26587 25107 ft 446 kts 171°
2026-04-26 17:19 54.22703 38.29107 25707 ft 450 kts 171°
2026-04-26 17:19 54.19651 38.30384 25966 ft 453 kts 171°
2026-04-26 17:19 54.16587 38.31681 26262 ft 454 kts 171°
2026-04-26 17:20 54.13516 38.32992 26572 ft 455 kts 171°
2026-04-26 17:20 54.11478 38.33865 26749 ft 457 kts 171°
2026-04-26 17:20 54.07339 38.35640 27079 ft 460 kts 170°
2026-04-26 17:20 54.04239 38.36969 27458 ft 459 kts 170°
2026-04-26 17:21 54.01153 38.38292 27932 ft 456 kts 170°
2026-04-26 17:21 53.98085 38.39604 28343 ft 455 kts 171°
2026-04-26 17:21 53.95007 38.40915 28654 ft 456 kts 171°
2026-04-26 17:21 53.91931 38.42222 29040 ft 454 kts 171°
2026-04-26 17:22 53.88875 38.43521 29493 ft 452 kts 171°
2026-04-26 17:22 53.85822 38.44815 29762 ft 453 kts 171°
2026-04-26 17:22 53.82757 38.46112 29927 ft 456 kts 171°
2026-04-26 17:22 53.79672 38.47415 30181 ft 456 kts 171°
2026-04-26 17:23 53.76589 38.48676 30493 ft 454 kts 174°
2026-04-26 17:23 53.73468 38.49344 30708 ft 451 kts 182°
2026-04-26 17:23 53.70349 38.49183 30909 ft 447 kts 189°
2026-04-26 17:23 53.67249 38.48686 31220 ft 447 kts 190°
2026-04-26 17:24 53.64159 38.48174 31520 ft 447 kts 190°
2026-04-26 17:24 53.61059 38.47667 31739 ft 448 kts 190°
2026-04-26 17:24 53.57950 38.47174 31947 ft 450 kts 189°
2026-04-26 17:24 53.54829 38.46695 32243 ft 450 kts 189°
2026-04-26 17:25 53.51752 38.46234 32539 ft 449 kts 189°
2026-04-26 17:25 53.48632 38.45773 32768 ft 451 kts 189°
2026-04-26 17:25 53.45500 38.45313 32972 ft 452 kts 189°
2026-04-26 17:25 53.42366 38.44855 33260 ft 452 kts 189°
2026-04-26 17:26 53.39240 38.44400 33515 ft 451 kts 189°
2026-04-26 17:26 53.36107 38.43944 33714 ft 452 kts 189°
2026-04-26 17:26 53.32975 38.43489 33911 ft 452 kts 189°
2026-04-26 17:26 53.29839 38.43032 34144 ft 452 kts 189°
2026-04-26 17:27 53.26709 38.42578 34382 ft 451 kts 189°
2026-04-26 17:27 53.23585 38.42125 34603 ft 451 kts 189°
2026-04-26 17:27 53.20459 38.41672 34818 ft 451 kts 189°
2026-04-26 17:27 53.17332 38.41219 35025 ft 451 kts 189°
2026-04-26 17:28 53.14204 38.40766 35211 ft 451 kts 189°
2026-04-26 17:28 53.11076 38.40315 35391 ft 452 kts 189°
2026-04-26 17:28 53.07943 38.39863 35600 ft 451 kts 189°
2026-04-26 17:28 53.04819 38.39414 35846 ft 450 kts 188°
2026-04-26 17:29 53.01699 38.38966 36065 ft 450 kts 188°
2026-04-26 17:29 52.99632 38.38669 36161 ft 450 kts 188°
2026-04-26 17:29 52.95444 38.38068 36344 ft 452 kts 188°
2026-04-26 17:29 52.92355 38.37626 36365 ft 451 kts 188°
2026-04-26 17:30 52.86099 38.36733 36380 ft 451 kts 188°
2026-04-26 17:30 52.79850 38.35844 36383 ft 450 kts 188°
2026-04-26 17:31 52.73606 38.34957 36380 ft 450 kts 188°
2026-04-26 17:31 52.67365 38.34074 36387 ft 450 kts 188°
2026-04-26 17:32 52.61116 38.33192 36385 ft 450 kts 188°
2026-04-26 17:32 52.57997 38.32753 36521 ft 448 kts 188°
2026-04-26 17:32 52.54929 38.32324 36442 ft 438 kts 188°
2026-04-26 17:33 52.48964 38.31493 36405 ft 426 kts 188°
2026-04-26 17:34 52.40121 38.30249 36402 ft 424 kts 189°
2026-04-26 17:34 52.34236 38.29427 36410 ft 425 kts 189°
2026-04-26 17:35 52.28330 38.28604 36412 ft 427 kts 189°
2026-04-26 17:35 52.22437 38.27787 36416 ft 429 kts 189°
2026-04-26 17:36 52.16502 38.26671 36417 ft 428 kts 196°
2026-04-26 17:36 52.10957 38.23404 36433 ft 423 kts 209°
2026-04-26 17:37 52.05700 38.19041 36440 ft 425 kts 209°
2026-04-26 17:37 52.00418 38.14687 36439 ft 426 kts 209°
2026-04-26 17:38 51.92464 38.08231 36447 ft 426 kts 209°
2026-04-26 17:38 51.87170 38.03955 36456 ft 425 kts 209°
2026-04-26 17:39 51.81880 37.99693 36454 ft 424 kts 209°
2026-04-26 17:39 51.76633 37.95453 36468 ft 424 kts 209°
2026-04-26 17:40 51.72230 37.91873 36469 ft 423 kts 209°
2026-04-26 17:40 51.66113 37.86911 36474 ft 423 kts 209°
2026-04-26 17:41 51.60857 37.82663 36484 ft 422 kts 209°
2026-04-26 17:41 51.55596 37.78422 36232 ft 426 kts 209°
2026-04-26 17:42 51.52937 37.76291 35714 ft 425 kts 209°
2026-04-26 17:42 51.50306 37.74204 35172 ft 419 kts 209°
2026-04-26 17:42 51.47694 37.72139 34570 ft 416 kts 209°
2026-04-26 17:42 51.45112 37.70100 33913 ft 414 kts 209°
2026-04-26 17:43 51.42536 37.68067 33359 ft 409 kts 209°
2026-04-26 17:43 51.39998 37.66064 32413 ft 409 kts 209°
2026-04-26 17:43 51.37448 37.64051 31579 ft 407 kts 208°
2026-04-26 17:43 51.34930 37.62067 30985 ft 400 kts 208°
2026-04-26 17:44 51.32433 37.60102 30154 ft 399 kts 208°
2026-04-26 17:44 51.29949 37.58149 29404 ft 396 kts 208°
2026-04-26 17:44 51.27487 37.56215 28720 ft 391 kts 208°
2026-04-26 17:44 51.25071 37.54321 28149 ft 383 kts 207°
2026-04-26 17:45 51.22707 37.52469 27612 ft 376 kts 207°
2026-04-26 17:45 51.20384 37.50650 27099 ft 368 kts 207°
2026-04-26 17:45 51.18134 37.48892 26601 ft 362 kts 207°
2026-04-26 17:45 51.15888 37.47138 26099 ft 356 kts 207°
2026-04-26 17:46 51.13705 37.45419 25857 ft 345 kts 207°
2026-04-26 17:46 51.11527 37.43698 25614 ft 355 kts 207°
2026-04-26 17:46 51.09278 37.41923 25370 ft 365 kts 207°
2026-04-26 17:46 51.06998 37.40131 25120 ft 365 kts 207°
2026-04-26 17:47 51.04727 37.38381 24641 ft 360 kts 206°
2026-04-26 17:47 51.03214 37.37226 24314 ft 355 kts 206°
2026-04-26 17:47 51.00287 37.34997 23618 ft 349 kts 206°
2026-04-26 17:47 50.98107 37.33335 23082 ft 345 kts 206°
2026-04-26 17:48 50.95961 37.31698 22505 ft 340 kts 206°
2026-04-26 17:48 50.93848 37.30087 21988 ft 334 kts 206°
2026-04-26 17:48 50.91773 37.28506 21486 ft 329 kts 206°
2026-04-26 17:48 50.89731 37.26940 21011 ft 323 kts 206°
2026-04-26 17:49 50.87722 37.25393 20532 ft 319 kts 206°
2026-04-26 17:49 50.85739 37.23865 20051 ft 315 kts 206°
2026-04-26 17:49 50.83780 37.22357 19580 ft 311 kts 206°
2026-04-26 17:49 50.81841 37.20865 19116 ft 308 kts 205°
2026-04-26 17:50 50.80570 37.19889 18801 ft 306 kts 205°
2026-04-26 17:50 50.78024 37.17935 18181 ft 302 kts 205°
2026-04-26 17:50 50.76142 37.16492 17690 ft 300 kts 205°
2026-04-26 17:50 50.74273 37.15061 17202 ft 297 kts 205°
2026-04-26 17:51 50.72448 37.13666 16746 ft 295 kts 206°
2026-04-26 17:51 50.70606 37.12260 16282 ft 293 kts 206°
2026-04-26 17:51 50.68765 37.10854 15826 ft 298 kts 207°
2026-04-26 17:51 50.66861 37.09401 15343 ft 309 kts 207°
2026-04-26 17:52 50.64918 37.07919 14849 ft 310 kts 208°
2026-04-26 17:52 50.62989 37.06452 14345 ft 306 kts 208°
2026-04-26 17:52 50.61078 37.04999 13869 ft 304 kts 209°
2026-04-26 17:52 50.59177 37.03555 13391 ft 302 kts 210°
2026-04-26 17:53 50.57294 37.02124 12853 ft 300 kts 210°
2026-04-26 17:53 50.55418 37.00700 12365 ft 298 kts 210°
2026-04-26 17:53 50.53553 36.99285 11859 ft 298 kts 210°
2026-04-26 17:54 50.49770 36.96416 10895 ft 309 kts 210°
2026-04-26 17:54 50.47784 36.94908 10495 ft 322 kts 210°
2026-04-26 17:54 50.45773 36.93390 10289 ft 318 kts 210°
2026-04-26 17:54 50.43814 36.91918 10143 ft 307 kts 210°
2026-04-26 17:55 50.41923 36.90496 9995 ft 297 kts 210°
2026-04-26 17:55 50.40090 36.89117 9872 ft 287 kts 210°
2026-04-26 17:55 50.38312 36.87777 9745 ft 279 kts 210°
2026-04-26 17:55 50.36590 36.86481 9628 ft 271 kts 210°
2026-04-26 17:56 50.34901 36.85211 9392 ft 268 kts 210°
2026-04-26 17:56 50.31551 36.82669 8781 ft 266 kts 214°
2026-04-26 17:57 50.28641 36.79488 8411 ft 253 kts 221°
2026-04-26 17:57 50.27238 36.77828 8130 ft 253 kts 222°
2026-04-26 17:57 50.25834 36.76177 7858 ft 252 kts 221°
2026-04-26 17:57 50.24430 36.74541 7597 ft 251 kts 221°
2026-04-26 17:58 50.20262 36.69742 6717 ft 241 kts 221°
2026-04-26 17:59 50.17623 36.66728 6217 ft 232 kts 221°
2026-04-26 17:59 50.16319 36.65238 5964 ft 233 kts 222°
2026-04-26 17:59 50.15010 36.63745 5686 ft 233 kts 222°
2026-04-26 17:59 50.13699 36.62253 5428 ft 233 kts 222°
2026-04-26 18:00 50.12393 36.60772 5268 ft 229 kts 222°
2026-04-26 18:00 50.11119 36.59329 5153 ft 223 kts 222°
2026-04-26 18:00 50.09882 36.57929 5054 ft 216 kts 223°
2026-04-26 18:00 50.08609 36.56719 4923 ft 221 kts 204°
2026-04-26 18:01 50.07030 36.56529 4803 ft 235 kts 183°
2026-04-26 18:01 50.05375 36.56825 4614 ft 243 kts 179°
2026-04-26 18:01 50.03693 36.57190 4420 ft 245 kts 179°
2026-04-26 18:01 50.02006 36.57543 4209 ft 244 kts 180°
2026-04-26 18:02 50.00327 36.57879 3983 ft 243 kts 180°
2026-04-26 18:02 49.99784 36.57985 3924 ft 243 kts 180°
2026-04-26 18:02 49.96990 36.58469 3577 ft 236 kts 190°
2026-04-26 18:02 49.95553 36.57678 3403 ft 210 kts 229°
2026-04-26 18:03 49.94851 36.55886 3251 ft 192 kts 258°
2026-04-26 18:03 49.94624 36.53897 3137 ft 183 kts 265°
2026-04-26 18:03 49.94519 36.51975 2975 ft 174 kts 269°
2026-04-26 18:03 49.94420 36.50141 2853 ft 167 kts 267°
2026-04-26 18:04 49.94286 36.48388 2693 ft 158 kts 266°
2026-04-26 18:04 49.94154 36.46782 2593 ft 145 kts 266°
2026-04-26 18:04 49.94026 36.45242 2452 ft 141 kts 266°
2026-04-26 18:05 49.93797 36.42497 2117 ft 119 kts 265°
2026-04-26 18:05 49.93691 36.41231 1959 ft 118 kts 265°
2026-04-26 18:05 49.93585 36.39950 1788 ft 120 kts 264°
2026-04-26 18:05 49.93477 36.38662 1614 ft 121 kts 264°
2026-04-26 18:06 49.93370 36.37360 1450 ft 123 kts 264°
2026-04-26 18:06 49.93260 36.36029 1267 ft 125 kts 263°
2026-04-26 18:06 49.93149 36.34692 1080 ft 125 kts 264°
2026-04-26 18:06 49.93036 36.33329 915 ft 130 kts 264°
2026-04-26 18:07 49.92923 36.31931 738 ft 132 kts 263°
2026-04-26 18:07 49.92844 36.30982 616 ft 135 kts 263°
2026-04-26 18:07 49.92728 36.29578 519 ft 123 kts 264°
2026-04-26 18:07 49.92665 36.28799 514 ft 91 kts 263°
2026-04-26 18:08 49.92603 36.28061 505 ft 28 kts 263°
2026-04-26 18:08 49.92584 36.27825 503 ft 13 kts 263°
2026-04-26 18:08 49.92576 36.27723 502 ft 0 kts 263°